Regional Weather Roundup
Issued by NWS State College, PA

Home | Current Version | Previous Version | Graphics & Text | Print | Product List | Glossary Off
Versions: 1 2 3 4 5 6 7 8 9 10 11 12 13 14 15 16 17 18 19 20 21 22 23 24 25 26 27 28 29 30 31 32 33 34 35 36 37 38 39 40 41 42 43 44 45 46 47 48 49 50

000
ASUS41 KCTP 011210
RWRCTP

REGIONAL WEATHER ROUNDUP
NATIONAL WEATHER SERVICE STATE COLLEGE PA
800 AM EDT SUN MAY 01 2016

Note: "fair" indicates few or no clouds below 12,000 feet with no
significant weather and/or obstructions to visibility.

* = STATION THAT DOES NOT REPORT PRECIPITATION /E.G. RAIN...SNOW...ETC/
    THUNDER OR FOG.

PAZ002>004-007>009-013>016-020>023-029>032-011300-
WESTERN PENNSYLVANIA

CITY           SKY/WX    TMP DP  RH WIND       PRES   REMARKS
ERIE           CLOUDY    52  50  93 VRB3      29.89R
MEADVILLE        N/A    N/A N/A N/A MISG      29.90R
FRANKLIN*      CLOUDY    54  52  94 SW9       29.95R
NEW CASTLE     CLOUDY    57  57 100 CALM      29.93R FOG
BEAVER COUNTY  NOT AVBL
BUTLER*        CLOUDY    57  55  94 S6        29.96R
PITTSBURGH INT LGT RAIN  61  58  90 SW8       29.92S FOG
PITTSBURGH     LGT RAIN  59  57  93 S9        29.94R
INDIANA*       CLOUDY    55  54  94 S6        29.98S
LATROBE        LGT RAIN  59  59 100 SW12      29.96R
WASHINGTON CO* CLOUDY    61  57  88 SW10      29.96R
$$

PAZ004>006-010>012-017>019-024>028-033>037-041-042-045-046-049>053-011300-
CENTRAL PENNSYLVANIA

CITY           SKY/WX    TMP DP  RH WIND       PRES   REMARKS
BRADFORD       CLOUDY    48  46  93 SE9       29.93S FOG
DUBOIS         CLOUDY    50  48  93 SE7       29.93S FOG
CLEARFIELD     LGT RAIN  49  47  93 NE3       29.99R FOG
JOHNSTOWN      CLOUDY    51  47  86 S8        29.98R
ALTOONA        LGT RAIN  50  48  93 S13       30.01S FOG
STATE COLLEGE  LGT RAIN  50  48  93 SW6       30.02R
WILLIAMSPORT   LGT RAIN  46  44  93 E13       30.07R
SELINSGROVE    LGT RAIN  47  43  86 SE6       30.09R
FT INDIANTOWN  LGT RAIN  43  43 100 E5        30.13S
CAPITAL CITY   LGT RAIN  48  46  93 SE13      30.12R FOG
HARRISBURG     LGT RAIN  47  44  90 SE10      30.11F
YORK           LGT RAIN  47  46  97 SE9       30.10F
$$

PAZ038>040-043-044-047-048-054-055-060>062-067>071-011300-
EASTERN PENNSYLVANIA

CITY           SKY/WX    TMP DP  RH WIND       PRES   REMARKS
SCRANTON       CLOUDY    43  36  76 VRB6      30.11F
MOUNT POCONO   LGT RAIN  36  32  85 SE16G23   30.12F FOG
ALLENTOWN      LGT RAIN  45  41  86 E8        30.18S
QUAKERTOWN*    CLOUDY    43  39  87 SE7       30.19F
READING        RAIN      43  38  82 SE8       30.14F
LANCASTER      LGT RAIN  45  43  93 SE10      30.13F FOG
COATESVILLE    LGT RAIN  43  43 100 E9G15     30.16F
POTTSTOWN      RAIN      41  41 100 E3        30.19F FOG
BLUE BELL      CLOUDY    43  41  93 CALM      30.19S
DOYLESTOWN     LGT RAIN  43  41  93 CALM      30.20R
WILLOW GROVE   NOT AVBL
NORTH PHILA    RAIN      47  41  80 CALM      30.22S
PHILADELPHIA   RAIN      47  41  80 E7        30.20S
$$




USA.gov is the U.S. government's official web portal to all federal, state and local government web resources and services.